Pecos, TX

12:10 AM CST on January 17, 2017 (GMT -0600)
Pecos Municipal

Weather History for KPEQ - November, 2012

Change the Weather History Date:

Thursday, November 22, 2012

  Actual Average Record
Temperature  
Mean Temperature 64 °F -  
Max Temperature 82 °F 68 °F 85 °F (1966)
Min Temperature 45 °F 34 °F 15 °F (1956)
Degree Days  
Heating Degree Days 2    
Growing Degree Days 14 (Base 50)    
Moisture  
Dew Point 42 °F    
Average Humidity 58    
Maximum Humidity 87    
Minimum Humidity 20    
Precipitation  
Precipitation 0.00 in - - ()
Sea Level Pressure  
Sea Level Pressure 30.07 in    
Wind  
Wind Speed 2 mph (WSW)    
Max Wind Speed 10 mph    
Max Gust Speed 18 mph    
Visibility 10 miles    
Events      
Averages and records for this station are not official NWS values.
T = Trace of Precipitation, MM = Missing Value Source: NWS Daily Summary

Daily Weather History Graph

Daily Weather History Graph

Search for Another Location

Airport or City:

Trip Planner

Search our weather history database for the weather conditions in past years. The results will help you decide how hot, cold, wet, or windy it might be!

Date:

Astronomy

Nov. 22, 2012 Rise Set
Actual Time 7:28 AM CST 5:52 PM CST
Civil Twilight 7:02 AM CST 6:18 PM CST
Nautical Twilight 6:32 AM CST 6:48 PM CST
Astronomical Twilight 6:03 AM CST 7:17 PM CST
Moon 2:22 PM CST (11/22) 2:09 AM CST (11/22)
Length of Visible Light 11h 16m
Length of Day
10h 24m
Waxing Gibbous, 71% of the Moon is Illuminated
Nov 22
Waxing Gibbous
Nov 28
Full
Dec 6
Last Quarter
Dec 13
New
Dec 19
First Quarter

Hourly Weather History & Observations

Time (CST) Temp. Windchill Dew Point Humidity Pressure Visibility Wind Dir Wind Speed Gust Speed Precip Events Conditions
12:15 AM 56.5 °F - 44.1 °F 63% 30.07 in 10.0 mi Calm Calm - N/A   Clear
12:35 AM 55.8 °F - 43.9 °F 64% 30.07 in 10.0 mi Calm Calm - N/A   Clear
12:55 AM 55.4 °F - 44.6 °F 67% 30.07 in 10.0 mi Calm Calm - N/A   Clear
1:15 AM 55.0 °F - 43.9 °F 66% 30.06 in 10.0 mi NNW 3.5 mph - N/A   Scattered Clouds
1:35 AM 54.7 °F - 43.7 °F 66% 30.06 in 10.0 mi ESE 8.1 mph - N/A   Clear
1:55 AM 53.8 °F - 43.9 °F 69% 30.05 in 10.0 mi ESE 5.8 mph - N/A   Mostly Cloudy
2:15 AM 54.1 °F - 44.4 °F 70% 30.05 in 10.0 mi SSE 4.6 mph - N/A   Scattered Clouds
2:35 AM 54.7 °F - 44.6 °F 69% 30.05 in 10.0 mi Calm Calm - N/A   Clear
2:55 AM 53.6 °F - 44.2 °F 71% 30.05 in 10.0 mi Calm Calm - N/A   Clear
3:15 AM 53.1 °F - 44.6 °F 73% 30.05 in 10.0 mi SE 3.5 mph - N/A   Clear
3:35 AM 52.7 °F - 43.9 °F 72% 30.04 in 10.0 mi Calm Calm - N/A   Clear
3:55 AM 52.0 °F - 43.9 °F 74% 30.05 in 10.0 mi Calm Calm - N/A   Scattered Clouds
4:15 AM 51.3 °F - 43.7 °F 75% 30.05 in 10.0 mi Calm Calm - N/A   Clear
4:35 AM 49.8 °F - 41.9 °F 74% 30.05 in 10.0 mi Calm Calm - N/A   Clear
4:55 AM 50.0 °F - 43.9 °F 79% 30.04 in 10.0 mi Calm Calm - N/A   Clear
5:15 AM 49.3 °F - 42.8 °F 78% 30.04 in 10.0 mi Calm Calm - N/A   Clear
5:35 AM 49.1 °F - 43.2 °F 80% 30.04 in 10.0 mi ENE 4.6 mph - N/A   Clear
5:55 AM 48.0 °F - 42.6 °F 82% 30.04 in 10.0 mi Calm Calm - N/A   Clear
6:15 AM 46.4 °F 45.2 °F 41.2 °F 82% 30.05 in 10.0 mi East 3.5 mph - N/A   Clear
6:35 AM 46.8 °F - 42.4 °F 85% 30.05 in 10.0 mi Calm Calm - N/A   Clear
6:55 AM 46.6 °F - 41.4 °F 82% 30.06 in 10.0 mi Calm Calm - N/A   Clear
7:15 AM 46.9 °F - 42.6 °F 85% 30.06 in 10.0 mi Calm Calm - N/A   Clear
7:35 AM 45.5 °F 44.2 °F 41.9 °F 87% 30.07 in 10.0 mi SSW 3.5 mph - N/A   Clear
7:55 AM 45.5 °F - 41.2 °F 85% 30.07 in 10.0 mi Calm Calm - N/A   Clear
8:15 AM 47.5 °F - 42.8 °F 84% 30.08 in 10.0 mi WSW 3.5 mph - N/A   Clear
8:35 AM 50.9 °F - 44.1 °F 77% 30.09 in 10.0 mi Calm Calm - N/A   Clear
8:55 AM 54.9 °F - 46.0 °F 72% 30.09 in 10.0 mi Calm Calm - N/A   Clear
9:15 AM 59.0 °F - 48.6 °F 68% 30.10 in 10.0 mi Calm Calm - N/A   Clear
9:35 AM 61.3 °F - 48.4 °F 62% 30.10 in 10.0 mi Calm Calm - N/A   Clear
9:55 AM 63.3 °F - 47.5 °F 56% 30.11 in 10.0 mi Calm Calm - N/A   Clear
10:15 AM 63.7 °F - 47.3 °F 55% 30.11 in 10.0 mi Calm Calm - N/A   Clear
11:15 AM 70.2 °F - 46.4 °F 43% 30.11 in 10.0 mi South 4.6 mph - N/A   Clear
11:35 AM 72.1 °F - 46.0 °F 39% 30.10 in 10.0 mi Calm Calm - N/A   Clear
11:55 AM 73.6 °F - 45.5 °F 37% 30.09 in 10.0 mi SSW 3.5 mph - N/A   Clear
12:35 PM 77.0 °F - 45.1 °F 32% 30.07 in 10.0 mi SW 6.9 mph - N/A   Clear
1:15 PM 80.8 °F - 43.0 °F 26% 30.04 in 10.0 mi SW 5.8 mph - N/A   Clear
1:35 PM 80.8 °F - 42.8 °F 26% 30.03 in 10.0 mi WSW 6.9 mph - N/A   Clear
2:15 PM 81.7 °F - 40.5 °F 23% 30.02 in 10.0 mi WNW 10.4 mph - N/A   Clear
2:35 PM 82.6 °F - 40.6 °F 23% 30.01 in 10.0 mi WNW 9.2 mph - N/A   Clear
2:55 PM 82.8 °F - 37.9 °F 20% 30.00 in 10.0 mi West 10.4 mph 18.4 mph N/A   Clear
5:35 PM 77.2 °F - 34.7 °F 21% 30.02 in 10.0 mi West 10.4 mph - N/A   Clear
6:35 PM 67.1 °F - 34.9 °F 30% 30.05 in 10.0 mi WSW 6.9 mph - N/A   Clear
6:55 PM 63.7 °F - 34.0 °F 33% 30.05 in 10.0 mi West 5.8 mph - N/A   Clear
7:15 PM 61.5 °F - 33.8 °F 35% 30.06 in 10.0 mi West 4.6 mph - N/A   Clear
8:15 PM 61.2 °F - 34.7 °F 37% 30.08 in 10.0 mi WNW 3.5 mph - N/A   Clear
8:55 PM 59.5 °F - 35.2 °F 40% 30.09 in 10.0 mi NW 4.6 mph - N/A   Clear
9:15 PM 56.8 °F - 34.7 °F 43% 30.10 in 10.0 mi Calm Calm - N/A   Clear
9:35 PM 56.1 °F - 34.3 °F 44% 30.11 in 10.0 mi Calm Calm - N/A   Clear
9:55 PM 58.5 °F - 36.1 °F 43% 30.12 in 10.0 mi Calm Calm - N/A   Clear
10:15 PM 60.3 °F - 36.9 °F 42% 30.13 in 10.0 mi NW 4.6 mph - N/A   Clear
11:15 PM 54.3 °F - 36.9 °F 52% 30.14 in 10.0 mi West 6.9 mph - N/A   Clear
11:35 PM 51.4 °F - 36.3 °F 56% 30.15 in 10.0 mi WSW 6.9 mph - N/A   Clear
11:55 PM 52.0 °F - 36.9 °F 56% 30.14 in 10.0 mi WSW 9.2 mph - N/A   Clear